Time,TemperatureF,DewpointF,PressureIn,WindDirection,WindDirectionDegrees,WindSpeedMPH,WindSpeedGustMPH,Humidity,HourlyPrecipIn,Conditions,Clouds,dailyrainin,SoftwareType,DateUTC
2013-03-06 00:01:00,29.7,28.0,30.15,ESE,105,8.0,18.0,92,0.00,,,0.00,weatherlink.com 1.10,2013-03-06 05:01:00,
2013-03-06 00:16:00,29.6,28.0,30.14,SSE,159,3.0,11.0,93,0.00,,,0.00,weatherlink.com 1.10,2013-03-06 05:16:00,
2013-03-06 00:31:00,29.6,28.0,30.14,SSE,150,6.0,16.0,93,0.00,,,0.00,weatherlink.com 1.10,2013-03-06 05:31:00,
2013-03-06 00:46:00,29.5,28.0,30.14,SSE,166,9.0,14.0,93,0.00,,,0.00,weatherlink.com 1.10,2013-03-06 05:46:00,
2013-03-06 01:01:00,29.5,28.0,30.15,SSE,165,6.0,16.0,93,0.00,,,0.00,weatherlink.com 1.10,2013-03-06 06:01:00,
2013-03-06 01:16:00,29.2,28.0,30.15,South,182,4.0,17.0,93,0.00,,,0.00,weatherlink.com 1.10,2013-03-06 06:16:00,
2013-03-06 01:31:00,29.1,28.0,30.15,SSW,209,10.0,16.0,94,0.00,,,0.00,weatherlink.com 1.10,2013-03-06 06:31:00,
2013-03-06 01:46:00,29.0,28.0,30.15,South,180,6.0,16.0,94,0.00,,,0.00,weatherlink.com 1.10,2013-03-06 06:46:00,
2013-03-06 02:01:00,28.9,27.0,30.16,South,184,6.0,18.0,94,0.00,,,0.00,weatherlink.com 1.10,2013-03-06 07:01:00,
2013-03-06 02:16:00,28.9,27.0,30.15,SSW,192,12.0,24.0,93,0.00,,,0.00,weatherlink.com 1.10,2013-03-06 07:16:00,
2013-03-06 02:31:00,28.9,27.0,30.15,SSW,200,11.0,17.0,93,0.00,,,0.00,weatherlink.com 1.10,2013-03-06 07:31:00,
2013-03-06 02:46:00,28.8,27.0,30.16,South,180,15.0,17.0,93,0.00,,,0.00,weatherlink.com 1.10,2013-03-06 07:46:00,
2013-03-06 03:01:00,28.8,27.0,30.16,South,184,11.0,18.0,93,0.00,,,0.00,weatherlink.com 1.10,2013-03-06 08:01:00,
2013-03-06 03:16:00,28.8,27.0,30.17,SSE,168,15.0,22.0,92,0.00,,,0.00,weatherlink.com 1.10,2013-03-06 08:16:00,
2013-03-06 03:31:00,28.7,27.0,30.18,SSW,196,9.0,20.0,92,0.00,,,0.00,weatherlink.com 1.10,2013-03-06 08:31:00,
2013-03-06 03:46:00,28.7,27.0,30.18,SSE,165,5.0,17.0,92,0.00,,,0.00,weatherlink.com 1.10,2013-03-06 08:46:00,
2013-03-06 04:01:00,28.6,27.0,30.18,SSE,167,8.0,17.0,92,0.00,,,0.00,weatherlink.com 1.10,2013-03-06 09:01:00,
2013-03-06 04:17:00,28.5,27.0,30.18,South,180,8.0,18.0,92,0.00,,,0.00,weatherlink.com 1.10,2013-03-06 09:17:00,
2013-03-06 04:32:00,28.7,27.0,30.18,South,182,13.0,22.0,92,0.00,,,0.00,weatherlink.com 1.10,2013-03-06 09:32:00,
2013-03-06 04:47:00,28.8,27.0,30.18,SSE,167,7.0,21.0,92,0.00,,,0.00,weatherlink.com 1.10,2013-03-06 09:47:00,
2013-03-06 05:02:00,28.6,27.0,30.18,SSE,165,5.0,12.0,92,0.00,,,0.00,weatherlink.com 1.10,2013-03-06 10:02:00,
2013-03-06 05:17:00,28.4,27.0,30.18,South,175,11.0,18.0,93,0.00,,,0.00,weatherlink.com 1.10,2013-03-06 10:17:00,
2013-03-06 05:32:00,28.3,26.0,30.19,SE,140,11.0,19.0,92,0.00,,,0.00,weatherlink.com 1.10,2013-03-06 10:32:00,
2013-03-06 05:47:00,28.1,26.0,30.18,South,191,10.0,21.0,92,0.00,,,0.00,weatherlink.com 1.10,2013-03-06 10:47:00,
2013-03-06 06:02:00,28.1,26.0,30.18,SSE,160,10.0,18.0,92,0.00,,,0.00,weatherlink.com 1.10,2013-03-06 11:02:00,
2013-03-06 06:17:00,28.0,26.0,30.18,South,172,10.0,17.0,91,0.00,,,0.00,weatherlink.com 1.10,2013-03-06 11:17:00,
2013-03-06 06:32:00,27.9,25.0,30.19,SE,132,22.0,25.0,90,0.00,,,0.00,weatherlink.com 1.10,2013-03-06 11:32:00,
2013-03-06 06:47:00,27.8,25.0,30.19,South,180,10.0,26.0,90,0.00,,,0.00,weatherlink.com 1.10,2013-03-06 11:47:00,
2013-03-06 07:02:00,27.8,26.0,30.20,SE,141,14.0,27.0,91,0.00,,,0.00,weatherlink.com 1.10,2013-03-06 12:02:00,
2013-03-06 07:17:00,27.7,26.0,30.20,South,180,15.0,18.0,91,0.00,,,0.00,weatherlink.com 1.10,2013-03-06 12:17:00,
2013-03-06 07:32:00,27.7,25.0,30.20,South,170,14.0,22.0,90,0.00,,,0.00,weatherlink.com 1.10,2013-03-06 12:32:00,
2013-03-06 07:47:00,27.8,25.0,30.21,South,177,5.0,20.0,90,0.00,,,0.00,weatherlink.com 1.10,2013-03-06 12:47:00,
2013-03-06 08:02:00,28.0,25.0,30.21,South,178,6.0,21.0,89,0.00,,,0.00,weatherlink.com 1.10,2013-03-06 13:02:00,
2013-03-06 08:17:00,28.0,25.0,30.22,SSE,161,6.0,20.0,89,0.00,,,0.00,weatherlink.com 1.10,2013-03-06 13:17:00,
2013-03-06 08:32:00,28.0,25.0,30.22,South,189,19.0,22.0,88,0.00,,,0.00,weatherlink.com 1.10,2013-03-06 13:32:00,
2013-03-06 08:47:00,28.1,24.0,30.22,South,182,18.0,22.0,85,0.00,,,0.00,weatherlink.com 1.10,2013-03-06 13:47:00,
2013-03-06 09:02:00,28.0,24.0,30.22,South,173,13.0,26.0,84,0.00,,,0.00,weatherlink.com 1.10,2013-03-06 14:02:00,
2013-03-06 09:17:00,28.1,23.0,30.23,SSE,161,20.0,25.0,82,0.00,,,0.00,weatherlink.com 1.10,2013-03-06 14:17:00,
2013-03-06 09:33:00,28.0,23.0,30.23,SSW,196,15.0,24.0,82,0.00,,,0.00,weatherlink.com 1.10,2013-03-06 14:33:00,
2013-03-06 09:48:00,27.8,23.0,30.23,SSW,205,14.0,25.0,82,0.00,,,0.00,weatherlink.com 1.10,2013-03-06 14:48:00,
2013-03-06 10:03:00,27.7,23.0,30.23,South,169,8.0,22.0,83,0.00,,,0.00,weatherlink.com 1.10,2013-03-06 15:03:00,
2013-03-06 10:18:00,28.0,23.0,30.23,South,170,8.0,21.0,82,0.00,,,0.00,weatherlink.com 1.10,2013-03-06 15:18:00,
2013-03-06 10:33:00,28.2,23.0,30.23,SE,141,11.0,20.0,81,0.00,,,0.00,weatherlink.com 1.10,2013-03-06 15:33:00,
2013-03-06 10:48:00,28.8,24.0,30.23,South,174,10.0,18.0,81,0.00,,,0.00,weatherlink.com 1.10,2013-03-06 15:48:00,
2013-03-06 11:03:00,29.2,23.0,30.24,SSW,202,18.0,19.0,79,0.00,,,0.00,weatherlink.com 1.10,2013-03-06 16:03:00,
2013-03-06 11:18:00,29.2,24.0,30.24,SSE,159,6.0,15.0,80,0.00,,,0.00,weatherlink.com 1.10,2013-03-06 16:18:00,
2013-03-06 11:33:00,29.0,24.0,30.24,SSW,194,10.0,20.0,80,0.00,,,0.00,weatherlink.com 1.10,2013-03-06 16:33:00,
2013-03-06 11:48:00,28.9,23.0,30.24,SSW,198,7.0,20.0,80,0.00,,,0.00,weatherlink.com 1.10,2013-03-06 16:48:00,
2013-03-06 12:03:00,28.4,23.0,30.23,SSW,205,15.0,17.0,81,0.00,,,0.00,weatherlink.com 1.10,2013-03-06 17:03:00,
2013-03-06 12:18:00,28.9,23.0,30.23,South,184,14.0,18.0,78,0.00,,,0.00,weatherlink.com 1.10,2013-03-06 17:18:00,
2013-03-06 12:33:00,29.5,23.0,30.22,South,191,10.0,17.0,78,0.00,,,0.00,weatherlink.com 1.10,2013-03-06 17:33:00,
2013-03-06 12:48:00,30.6,24.0,30.21,SSE,166,12.0,19.0,77,0.00,,,0.00,weatherlink.com 1.10,2013-03-06 17:48:00,
2013-03-06 13:03:00,29.3,24.0,30.21,SSW,197,7.0,20.0,81,0.00,,,0.00,weatherlink.com 1.10,2013-03-06 18:03:00,
2013-03-06 13:18:00,29.8,24.0,30.21,SE,144,14.0,26.0,79,0.00,,,0.00,weatherlink.com 1.10,2013-03-06 18:18:00,
2013-03-06 13:33:00,29.9,24.0,30.21,SSE,160,7.0,21.0,78,0.00,,,0.00,weatherlink.com 1.10,2013-03-06 18:33:00,
2013-03-06 13:48:00,30.9,24.0,30.20,South,171,12.0,17.0,75,0.00,,,0.00,weatherlink.com 1.10,2013-03-06 18:48:00,
2013-03-06 14:03:00,30.4,23.0,30.20,SSE,162,7.0,17.0,75,0.00,,,0.00,weatherlink.com 1.10,2013-03-06 19:03:00,
2013-03-06 14:18:00,30.4,24.0,30.20,SSE,153,15.0,20.0,77,0.00,,,0.00,weatherlink.com 1.10,2013-03-06 19:18:00,
2013-03-06 14:33:00,29.8,24.0,30.21,SSE,150,8.0,19.0,78,0.00,,,0.00,weatherlink.com 1.10,2013-03-06 19:33:00,
2013-03-06 14:48:00,29.8,24.0,30.21,SSE,167,8.0,17.0,78,0.00,,,0.00,weatherlink.com 1.10,2013-03-06 19:48:00,
2013-03-06 15:03:00,30.0,23.0,30.21,SE,146,9.0,15.0,76,0.00,,,0.00,weatherlink.com 1.10,2013-03-06 20:03:00,
2013-03-06 15:18:00,29.6,24.0,30.21,SE,146,14.0,19.0,81,0.00,,,0.00,weatherlink.com 1.10,2013-03-06 20:18:00,
2013-03-06 15:33:00,28.6,24.0,30.21,South,171,13.0,17.0,82,0.00,,,0.00,weatherlink.com 1.10,2013-03-06 20:33:00,
2013-03-06 15:48:00,29.3,24.0,30.21,South,178,5.0,15.0,81,0.00,,,0.00,weatherlink.com 1.10,2013-03-06 20:48:00,
2013-03-06 16:03:00,29.5,24.0,30.22,South,184,5.0,11.0,80,0.00,,,0.00,weatherlink.com 1.10,2013-03-06 21:03:00,
2013-03-06 16:18:00,29.1,23.0,30.23,SE,145,15.0,19.0,79,0.00,,,0.00,weatherlink.com 1.10,2013-03-06 21:18:00,
2013-03-06 16:33:00,28.6,24.0,30.22,SSE,153,8.0,16.0,81,0.00,,,0.00,weatherlink.com 1.10,2013-03-06 21:33:00,
2013-03-06 16:48:00,28.5,23.0,30.22,South,171,7.0,14.0,81,0.00,,,0.00,weatherlink.com 1.10,2013-03-06 21:48:00,
2013-03-06 17:03:00,28.3,24.0,30.23,SSE,153,9.0,12.0,82,0.00,,,0.00,weatherlink.com 1.10,2013-03-06 22:03:00,
2013-03-06 17:18:00,27.9,24.0,30.23,SSE,160,5.0,14.0,85,0.00,,,0.00,weatherlink.com 1.10,2013-03-06 22:18:00,
2013-03-06 17:33:00,27.4,24.0,30.23,SSE,148,8.0,16.0,85,0.00,,,0.00,weatherlink.com 1.10,2013-03-06 22:33:00,
2013-03-06 17:48:00,27.2,23.0,30.23,South,186,5.0,14.0,83,0.00,,,0.00,weatherlink.com 1.10,2013-03-06 22:48:00,
2013-03-06 18:03:00,27.1,23.0,30.23,SSE,149,10.0,19.0,83,0.00,,,0.00,weatherlink.com 1.10,2013-03-06 23:03:00,
2013-03-06 18:18:00,26.7,22.0,30.23,SSE,165,7.0,21.0,83,0.00,,,0.00,weatherlink.com 1.10,2013-03-06 23:18:00,
2013-03-06 18:33:00,26.6,22.0,30.23,SE,130,5.0,14.0,83,0.00,,,0.00,weatherlink.com 1.10,2013-03-06 23:33:00,
2013-03-06 18:48:00,26.4,23.0,30.24,SSE,155,10.0,11.0,85,0.00,,,0.00,weatherlink.com 1.10,2013-03-06 23:48:00,
2013-03-06 19:04:00,26.2,23.0,30.24,South,172,4.0,15.0,87,0.00,,,0.00,weatherlink.com 1.10,2013-03-07 00:04:00,
2013-03-06 19:18:00,25.7,23.0,30.24,South,188,9.0,17.0,88,0.00,,,0.00,weatherlink.com 1.10,2013-03-07 00:18:00,
2013-03-06 19:33:00,25.5,22.0,30.24,SSE,154,9.0,15.0,86,0.00,,,0.00,weatherlink.com 1.10,2013-03-07 00:33:00,
2013-03-06 19:48:00,25.4,22.0,30.23,SE,143,13.0,18.0,85,0.00,,,0.00,weatherlink.com 1.10,2013-03-07 00:48:00,
2013-03-06 20:03:00,25.3,22.0,30.24,South,171,6.0,19.0,86,0.00,,,0.00,weatherlink.com 1.10,2013-03-07 01:03:00,
2013-03-06 20:18:00,25.2,22.0,30.24,SE,146,18.0,20.0,87,0.00,,,0.00,weatherlink.com 1.10,2013-03-07 01:18:00,
2013-03-06 20:33:00,25.1,21.0,30.23,SSE,167,15.0,22.0,84,0.00,,,0.00,weatherlink.com 1.10,2013-03-07 01:33:00,
2013-03-06 20:49:00,24.8,21.0,30.23,South,183,10.0,20.0,84,0.00,,,0.00,weatherlink.com 1.10,2013-03-07 01:49:00,
2013-03-06 21:04:00,24.3,20.0,30.23,SE,144,17.0,20.0,83,0.00,,,0.00,weatherlink.com 1.10,2013-03-07 02:04:00,
2013-03-06 21:19:00,24.3,19.0,30.23,SSE,147,14.0,23.0,81,0.00,,,0.00,weatherlink.com 1.10,2013-03-07 02:19:00,
2013-03-06 21:34:00,24.1,19.0,30.23,SSE,148,12.0,20.0,82,0.00,,,0.00,weatherlink.com 1.10,2013-03-07 02:34:00,
2013-03-06 21:49:00,24.0,19.0,30.23,South,172,10.0,20.0,82,0.00,,,0.00,weatherlink.com 1.10,2013-03-07 02:49:00,
2013-03-06 22:04:00,24.0,19.0,30.22,South,172,8.0,22.0,82,0.00,,,0.00,weatherlink.com 1.10,2013-03-07 03:04:00,
2013-03-06 22:19:00,23.9,19.0,30.22,SSE,154,10.0,18.0,82,0.00,,,0.00,weatherlink.com 1.10,2013-03-07 03:19:00,
2013-03-06 22:34:00,23.9,19.0,30.22,SSE,168,19.0,22.0,82,0.00,,,0.00,weatherlink.com 1.10,2013-03-07 03:34:00,
2013-03-06 22:49:00,23.7,19.0,30.22,SSW,198,8.0,22.0,82,0.00,,,0.00,weatherlink.com 1.10,2013-03-07 03:49:00,
2013-03-06 23:04:00,23.4,19.0,30.21,SSW,193,9.0,20.0,84,0.00,,,0.00,weatherlink.com 1.10,2013-03-07 04:04:00,
2013-03-06 23:34:00,23.3,20.0,30.21,SSE,155,13.0,20.0,85,0.00,,,0.00,weatherlink.com 1.10,2013-03-07 04:34:00,
2013-03-06 23:49:00,23.2,20.0,30.21,South,176,11.0,21.0,86,0.00,,,0.00,weatherlink.com 1.10,2013-03-07 04:49:00,